Time,TemperatureF,DewpointF,PressureIn,WindDirection,WindDirectionDegrees,WindSpeedMPH,WindSpeedGustMPH,Humidity,HourlyPrecipIn,Conditions,Clouds,dailyrainin,SoftwareType,DateUTC
2013-01-09 00:02:00,48.0,20.0,-100.00,NE,56,3.0,6.0,32,-99.99,,,-99.99,,2013-01-09 08:02:00,
2013-01-09 00:12:00,48.0,20.0,-100.00,ENE,61,3.0,7.0,32,-99.99,,,-99.99,,2013-01-09 08:12:00,
2013-01-09 00:22:00,49.0,20.0,-100.00,ENE,62,4.0,8.0,32,-99.99,,,-99.99,,2013-01-09 08:22:00,
2013-01-09 00:32:00,48.0,20.0,-100.00,NE,54,4.0,6.0,32,-99.99,,,-99.99,,2013-01-09 08:32:00,
2013-01-09 00:42:00,48.0,20.0,-100.00,NE,50,4.0,8.0,32,-99.99,,,-99.99,,2013-01-09 08:42:00,
2013-01-09 00:52:00,48.0,20.0,-100.00,NE,52,4.0,8.0,32,-99.99,,,-99.99,,2013-01-09 08:52:00,
2013-01-09 01:02:00,48.0,20.0,-100.00,NE,52,4.0,8.0,32,-99.99,,,-99.99,,2013-01-09 09:02:00,
2013-01-09 01:11:00,49.0,20.0,-100.00,NE,43,5.0,8.0,32,-99.99,,,-99.99,,2013-01-09 09:11:00,
2013-01-09 01:22:00,48.0,20.0,-100.00,NE,53,4.0,9.0,32,-99.99,,,-99.99,,2013-01-09 09:22:00,
2013-01-09 01:32:00,48.0,20.0,-100.00,ENE,57,4.0,8.0,33,-99.99,,,-99.99,,2013-01-09 09:32:00,
2013-01-09 01:42:00,48.0,20.0,-100.00,NE,53,4.0,6.0,33,-99.99,,,-99.99,,2013-01-09 09:42:00,
2013-01-09 01:53:00,48.0,20.0,-100.00,ENE,61,4.0,10.0,33,-99.99,,,-99.99,,2013-01-09 09:53:00,
2013-01-09 02:01:00,48.0,20.0,-100.00,ENE,61,4.0,10.0,33,-99.99,,,-99.99,,2013-01-09 10:01:00,
2013-01-09 02:11:00,48.0,20.0,-100.00,NE,56,4.0,7.0,33,-99.99,,,-99.99,,2013-01-09 10:11:00,
2013-01-09 02:22:00,48.0,20.0,-100.00,NE,52,4.0,8.0,33,-99.99,,,-99.99,,2013-01-09 10:22:00,
2013-01-09 02:32:00,48.0,21.0,-100.00,NE,54,3.0,6.0,34,-99.99,,,-99.99,,2013-01-09 10:32:00,
2013-01-09 02:42:00,48.0,21.0,-100.00,NE,53,3.0,6.0,34,-99.99,,,-99.99,,2013-01-09 10:42:00,
2013-01-09 02:52:00,48.0,22.0,-100.00,NE,52,3.0,5.0,35,-99.99,,,-99.99,,2013-01-09 10:52:00,
2013-01-09 03:02:00,48.0,22.0,-100.00,NE,52,3.0,5.0,35,-99.99,,,-99.99,,2013-01-09 11:02:00,
2013-01-09 03:11:00,47.0,21.0,-100.00,NE,51,2.0,4.0,35,-99.99,,,-99.99,,2013-01-09 11:11:00,
2013-01-09 03:22:00,47.0,21.0,-100.00,NE,50,2.0,4.0,36,-99.99,,,-99.99,,2013-01-09 11:22:00,
2013-01-09 03:32:00,47.0,21.0,-100.00,East,87,1.0,3.0,36,-99.99,,,-99.99,,2013-01-09 11:32:00,
2013-01-09 03:42:00,45.0,22.0,-100.00,South,177,1.0,2.0,39,-99.99,,,-99.99,,2013-01-09 11:42:00,
2013-01-09 03:52:00,43.0,22.0,-100.00,ESE,120,1.0,2.0,43,-99.99,,,-99.99,,2013-01-09 11:52:00,
2013-01-09 04:02:00,42.0,23.0,-100.00,East,93,1.0,2.0,46,-99.99,,,-99.99,,2013-01-09 12:02:00,
2013-01-09 04:12:00,46.0,22.0,-100.00,ENE,66,4.0,6.0,38,-99.99,,,-99.99,,2013-01-09 12:12:00,
2013-01-09 04:22:00,49.0,22.0,-100.00,ENE,59,3.0,5.0,34,-99.99,,,-99.99,,2013-01-09 12:22:00,
2013-01-09 04:32:00,49.0,21.0,-100.00,NE,53,3.0,5.0,33,-99.99,,,-99.99,,2013-01-09 12:32:00,
2013-01-09 04:42:00,49.0,21.0,-100.00,ENE,66,2.0,5.0,33,-99.99,,,-99.99,,2013-01-09 12:42:00,
2013-01-09 04:52:00,48.0,21.0,-100.00,NE,53,1.0,4.0,34,-99.99,,,-99.99,,2013-01-09 12:52:00,
2013-01-09 05:02:00,48.0,21.0,-100.00,ENE,62,2.0,4.0,34,-99.99,,,-99.99,,2013-01-09 13:02:00,
2013-01-09 05:12:00,48.0,21.0,-100.00,NE,56,2.0,5.0,34,-99.99,,,-99.99,,2013-01-09 13:12:00,
2013-01-09 05:22:00,48.0,22.0,-100.00,NE,54,2.0,4.0,35,-99.99,,,-99.99,,2013-01-09 13:22:00,
2013-01-09 05:32:00,48.0,21.0,-100.00,ENE,66,3.0,4.0,34,-99.99,,,-99.99,,2013-01-09 13:32:00,
2013-01-09 05:42:00,48.0,21.0,-100.00,ENE,66,3.0,4.0,34,-99.99,,,-99.99,,2013-01-09 13:42:00,
2013-01-09 05:52:00,48.0,22.0,-100.00,ENE,64,3.0,6.0,35,-99.99,,,-99.99,,2013-01-09 13:52:00,
2013-01-09 06:02:00,48.0,22.0,-100.00,ENE,65,3.0,6.0,35,-99.99,,,-99.99,,2013-01-09 14:02:00,
2013-01-09 06:12:00,48.0,22.0,-100.00,ENE,60,3.0,5.0,35,-99.99,,,-99.99,,2013-01-09 14:12:00,
2013-01-09 06:22:00,48.0,22.0,-100.00,ENE,62,3.0,6.0,36,-99.99,,,-99.99,,2013-01-09 14:22:00,
2013-01-09 06:32:00,48.0,22.0,-100.00,ENE,60,3.0,5.0,36,-99.99,,,-99.99,,2013-01-09 14:32:00,
2013-01-09 06:43:00,47.0,21.0,-100.00,ENE,62,3.0,6.0,36,-99.99,,,-99.99,,2013-01-09 14:43:00,
2013-01-09 06:52:00,47.0,22.0,-100.00,ENE,65,3.0,7.0,37,-99.99,,,-99.99,,2013-01-09 14:52:00,
2013-01-09 07:03:00,47.0,22.0,-100.00,ENE,65,3.0,7.0,37,-99.99,,,-99.99,,2013-01-09 15:03:00,
2013-01-09 07:12:00,46.0,22.0,-100.00,ENE,61,3.0,7.0,38,-99.99,,,-99.99,,2013-01-09 15:12:00,
2013-01-09 07:22:00,46.0,22.0,-100.00,ENE,61,3.0,7.0,38,-99.99,,,-99.99,,2013-01-09 15:22:00,
2013-01-09 07:33:00,47.0,23.0,-100.00,ENE,66,3.0,5.0,38,-99.99,,,-99.99,,2013-01-09 15:33:00,
2013-01-09 07:42:00,47.0,23.0,-100.00,ENE,60,3.0,6.0,39,-99.99,,,-99.99,,2013-01-09 15:42:00,
2013-01-09 07:52:00,47.0,23.0,-100.00,ENE,59,3.0,7.0,39,-99.99,,,-99.99,,2013-01-09 15:52:00,
2013-01-09 08:02:00,47.0,23.0,-100.00,ENE,60,4.0,8.0,39,-99.99,,,-99.99,,2013-01-09 16:02:00,
2013-01-09 08:12:00,47.0,23.0,-100.00,ENE,60,4.0,6.0,38,-99.99,,,-99.99,,2013-01-09 16:12:00,
2013-01-09 08:22:00,47.0,23.0,-100.00,ENE,60,4.0,7.0,38,-99.99,,,-99.99,,2013-01-09 16:22:00,
2013-01-09 08:33:00,48.0,23.0,-100.00,ENE,57,4.0,7.0,37,-99.99,,,-99.99,,2013-01-09 16:33:00,
2013-01-09 08:42:00,47.0,22.0,-100.00,NE,55,4.0,7.0,37,-99.99,,,-99.99,,2013-01-09 16:42:00,
2013-01-09 08:52:00,48.0,22.0,-100.00,NE,56,4.0,7.0,36,-99.99,,,-99.99,,2013-01-09 16:52:00,
2013-01-09 09:02:00,48.0,22.0,-100.00,NE,56,4.0,7.0,36,-99.99,,,-99.99,,2013-01-09 17:02:00,
2013-01-09 09:12:00,49.0,23.0,-100.00,NE,51,3.0,7.0,35,-99.99,,,-99.99,,2013-01-09 17:12:00,
2013-01-09 09:22:00,50.0,23.0,-100.00,NE,54,3.0,5.0,35,-99.99,,,-99.99,,2013-01-09 17:22:00,
2013-01-09 09:32:00,51.0,24.0,-100.00,NE,38,2.0,5.0,34,-99.99,,,-99.99,,2013-01-09 17:32:00,
2013-01-09 09:43:00,52.0,24.0,-100.00,North,359,1.0,4.0,33,-99.99,,,-99.99,,2013-01-09 17:43:00,
2013-01-09 09:52:00,52.0,24.0,-100.00,ENE,60,2.0,5.0,33,-99.99,,,-99.99,,2013-01-09 17:52:00,
2013-01-09 10:02:00,52.0,24.0,-100.00,ENE,60,2.0,5.0,33,-99.99,,,-99.99,,2013-01-09 18:02:00,
2013-01-09 10:12:00,51.0,24.0,-100.00,NE,38,2.0,5.0,35,-99.99,,,-99.99,,2013-01-09 18:12:00,
2013-01-09 10:23:00,52.0,25.0,-100.00,NE,54,2.0,5.0,34,-99.99,,,-99.99,,2013-01-09 18:23:00,
2013-01-09 10:33:00,51.0,24.0,-100.00,East,82,2.0,7.0,34,-99.99,,,-99.99,,2013-01-09 18:33:00,
2013-01-09 10:43:00,51.0,24.0,-100.00,East,82,2.0,7.0,34,-99.99,,,-99.99,,2013-01-09 18:43:00,
2013-01-09 10:52:00,51.0,23.0,-100.00,ENE,66,2.0,5.0,33,-99.99,,,-99.99,,2013-01-09 18:52:00,
2013-01-09 11:02:00,52.0,24.0,-100.00,East,81,2.0,5.0,33,-99.99,,,-99.99,,2013-01-09 19:02:00,
2013-01-09 11:12:00,52.0,23.0,-100.00,WNW,303,1.0,3.0,32,-99.99,,,-99.99,,2013-01-09 19:12:00,
2013-01-09 11:22:00,53.0,23.0,-100.00,SE,130,1.0,5.0,31,-99.99,,,-99.99,,2013-01-09 19:22:00,
2013-01-09 11:30:00,55.0,23.0,-100.00,ESE,122,3.0,7.0,29,-99.99,,,-99.99,,2013-01-09 19:30:00,
2013-01-09 11:32:00,53.0,23.0,-100.00,SE,130,1.0,5.0,31,-99.99,,,-99.99,,2013-01-09 19:32:00,
2013-01-09 11:42:00,53.0,23.0,-100.00,SE,130,1.0,5.0,31,-99.99,,,-99.99,,2013-01-09 19:42:00,
2013-01-09 11:52:00,55.0,25.0,-100.00,NE,55,2.0,4.0,31,-99.99,,,-99.99,,2013-01-09 19:52:00,
2013-01-09 12:02:00,55.0,23.0,-100.00,ESE,122,3.0,7.0,29,-99.99,,,-99.99,,2013-01-09 20:02:00,
2013-01-09 12:12:00,55.0,23.0,-100.00,ESE,122,3.0,7.0,29,-99.99,,,-99.99,,2013-01-09 20:12:00,
2013-01-09 12:22:00,55.0,23.0,-100.00,ESE,122,3.0,7.0,29,-99.99,,,-99.99,,2013-01-09 20:22:00,
2013-01-09 13:12:00,58.0,27.0,-100.00,WSW,241,2.0,5.0,30,-99.99,,,-99.99,,2013-01-09 21:12:00,
2013-01-09 13:22:00,57.0,26.0,-100.00,SW,234,3.0,5.0,30,-99.99,,,-99.99,,2013-01-09 21:22:00,
2013-01-09 13:33:00,57.0,27.0,-100.00,WSW,240,3.0,6.0,31,-99.99,,,-99.99,,2013-01-09 21:33:00,
2013-01-09 13:42:00,57.0,27.0,-100.00,WSW,241,2.0,6.0,31,-99.99,,,-99.99,,2013-01-09 21:42:00,
2013-01-09 13:52:00,56.0,26.0,-100.00,SW,230,2.0,6.0,31,-99.99,,,-99.99,,2013-01-09 21:52:00,
2013-01-09 14:02:00,56.0,26.0,-100.00,SW,230,2.0,6.0,31,-99.99,,,-99.99,,2013-01-09 22:02:00,
2013-01-09 14:12:00,55.0,27.0,-100.00,West,274,2.0,6.0,34,-99.99,,,-99.99,,2013-01-09 22:12:00,
2013-01-09 14:22:00,55.0,28.0,-100.00,WSW,253,2.0,5.0,35,-99.99,,,-99.99,,2013-01-09 22:22:00,
2013-01-09 14:33:00,55.0,28.0,-100.00,WSW,238,2.0,5.0,35,-99.99,,,-99.99,,2013-01-09 22:33:00,
2013-01-09 14:42:00,55.0,29.0,-100.00,West,270,2.0,5.0,36,-99.99,,,-99.99,,2013-01-09 22:42:00,
2013-01-09 14:52:00,55.0,29.0,-100.00,WSW,255,1.0,4.0,36,-99.99,,,-99.99,,2013-01-09 22:52:00,
2013-01-09 15:02:00,55.0,29.0,-100.00,WSW,247,2.0,6.0,36,-99.99,,,-99.99,,2013-01-09 23:02:00,
2013-01-09 15:12:00,54.0,28.0,-100.00,West,263,2.0,5.0,37,-99.99,,,-99.99,,2013-01-09 23:12:00,
2013-01-09 15:22:00,54.0,28.0,-100.00,West,269,2.0,5.0,36,-99.99,,,-99.99,,2013-01-09 23:22:00,
2013-01-09 15:32:00,54.0,28.0,-100.00,West,267,2.0,4.0,37,-99.99,,,-99.99,,2013-01-09 23:32:00,
2013-01-09 15:42:00,54.0,26.0,-100.00,WSW,251,2.0,5.0,33,-99.99,,,-99.99,,2013-01-09 23:42:00,
2013-01-09 15:52:00,54.0,26.0,-100.00,WSW,251,2.0,5.0,33,-99.99,,,-99.99,,2013-01-09 23:52:00,
2013-01-09 16:02:00,53.0,23.0,-100.00,WSW,245,2.0,5.0,31,-99.99,,,-99.99,,2013-01-10 00:02:00,
2013-01-09 16:12:00,53.0,23.0,-100.00,WSW,255,2.0,5.0,31,-99.99,,,-99.99,,2013-01-10 00:12:00,
2013-01-09 16:22:00,53.0,23.0,-100.00,WSW,246,2.0,5.0,31,-99.99,,,-99.99,,2013-01-10 00:22:00,
2013-01-09 16:32:00,54.0,23.0,-100.00,WSW,253,2.0,5.0,30,-99.99,,,-99.99,,2013-01-10 00:32:00,
2013-01-09 16:42:00,53.0,23.0,-100.00,WSW,245,1.0,4.0,31,-99.99,,,-99.99,,2013-01-10 00:42:00,
2013-01-09 16:52:00,52.0,22.0,-100.00,SW,230,1.0,3.0,30,-99.99,,,-99.99,,2013-01-10 00:52:00,
2013-01-09 17:02:00,51.0,21.0,-100.00,WSW,243,2.0,5.0,31,-99.99,,,-99.99,,2013-01-10 01:02:00,
2013-01-09 17:12:00,51.0,24.0,-100.00,WSW,244,2.0,5.0,34,-99.99,,,-99.99,,2013-01-10 01:12:00,
2013-01-09 17:22:00,50.0,24.0,-100.00,WSW,242,2.0,4.0,36,-99.99,,,-99.99,,2013-01-10 01:22:00,
2013-01-09 17:32:00,49.0,25.0,-100.00,WSW,240,2.0,3.0,38,-99.99,,,-99.99,,2013-01-10 01:32:00,
2013-01-09 17:42:00,47.0,25.0,-100.00,SW,234,2.0,4.0,41,-99.99,,,-99.99,,2013-01-10 01:42:00,
2013-01-09 17:52:00,47.0,27.0,-100.00,WSW,237,3.0,4.0,45,-99.99,,,-99.99,,2013-01-10 01:52:00,
2013-01-09 18:02:00,46.0,28.0,-100.00,SW,235,2.0,4.0,49,-99.99,,,-99.99,,2013-01-10 02:02:00,
2013-01-09 18:12:00,45.0,28.0,-100.00,SW,234,3.0,4.0,51,-99.99,,,-99.99,,2013-01-10 02:12:00,
2013-01-09 18:22:00,45.0,28.0,-100.00,SW,232,2.0,4.0,52,-99.99,,,-99.99,,2013-01-10 02:22:00,
2013-01-09 18:32:00,45.0,29.0,-100.00,SW,227,2.0,4.0,53,-99.99,,,-99.99,,2013-01-10 02:32:00,
2013-01-09 18:42:00,45.0,29.0,-100.00,SW,227,2.0,4.0,53,-99.99,,,-99.99,,2013-01-10 02:42:00,
2013-01-09 18:52:00,45.0,29.0,-100.00,SW,227,2.0,4.0,53,-99.99,,,-99.99,,2013-01-10 02:52:00,
2013-01-09 19:02:00,45.0,29.0,-100.00,WSW,244,1.0,2.0,53,-99.99,,,-99.99,,2013-01-10 03:02:00,
2013-01-09 19:11:00,44.0,29.0,-100.00,SSW,213,1.0,2.0,55,-99.99,,,-99.99,,2013-01-10 03:11:00,
2013-01-09 19:22:00,44.0,28.0,-100.00,WSW,238,1.0,2.0,54,-99.99,,,-99.99,,2013-01-10 03:22:00,
2013-01-09 19:32:00,44.0,28.0,-100.00,WSW,243,2.0,3.0,54,-99.99,,,-99.99,,2013-01-10 03:32:00,
2013-01-09 19:42:00,44.0,28.0,-100.00,WSW,246,2.0,4.0,52,-99.99,,,-99.99,,2013-01-10 03:42:00,
2013-01-09 19:52:00,44.0,27.0,-100.00,WSW,244,1.0,2.0,50,-99.99,,,-99.99,,2013-01-10 03:52:00,
2013-01-09 20:02:00,44.0,25.0,-100.00,WSW,248,2.0,3.0,46,-99.99,,,-99.99,,2013-01-10 04:02:00,
2013-01-09 20:12:00,45.0,23.0,-100.00,WSW,248,2.0,3.0,42,-99.99,,,-99.99,,2013-01-10 04:12:00,
2013-01-09 20:22:00,45.0,23.0,-100.00,WSW,245,2.0,4.0,41,-99.99,,,-99.99,,2013-01-10 04:22:00,
2013-01-09 20:32:00,45.0,20.0,-100.00,SW,232,2.0,4.0,37,-99.99,,,-99.99,,2013-01-10 04:32:00,
2013-01-09 20:42:00,45.0,19.0,-100.00,SW,235,2.0,5.0,35,-99.99,,,-99.99,,2013-01-10 04:42:00,
2013-01-09 20:52:00,45.0,19.0,-100.00,SW,232,2.0,4.0,35,-99.99,,,-99.99,,2013-01-10 04:52:00,
2013-01-09 21:03:00,45.0,18.0,-100.00,SW,235,2.0,4.0,34,-99.99,,,-99.99,,2013-01-10 05:03:00,
2013-01-09 21:12:00,45.0,18.0,-100.00,SW,235,2.0,4.0,34,-99.99,,,-99.99,,2013-01-10 05:12:00,
2013-01-09 21:22:00,45.0,18.0,-100.00,WSW,241,2.0,4.0,34,-99.99,,,-99.99,,2013-01-10 05:22:00,
2013-01-09 21:32:00,45.0,18.0,-100.00,WSW,241,2.0,4.0,34,-99.99,,,-99.99,,2013-01-10 05:32:00,
2013-01-09 21:42:00,45.0,19.0,-100.00,SW,227,2.0,6.0,35,-99.99,,,-99.99,,2013-01-10 05:42:00,
2013-01-09 21:52:00,45.0,19.0,-100.00,SW,222,2.0,5.0,35,-99.99,,,-99.99,,2013-01-10 05:52:00,
2013-01-09 22:02:00,45.0,22.0,-100.00,SW,226,2.0,5.0,40,-99.99,,,-99.99,,2013-01-10 06:02:00,
2013-01-09 22:11:00,44.0,24.0,-100.00,SW,236,2.0,5.0,45,-99.99,,,-99.99,,2013-01-10 06:11:00,
2013-01-09 22:22:00,44.0,25.0,-100.00,SW,226,2.0,6.0,46,-99.99,,,-99.99,,2013-01-10 06:22:00,
2013-01-09 22:32:00,43.0,22.0,-100.00,SW,236,3.0,6.0,43,-99.99,,,-99.99,,2013-01-10 06:32:00,
2013-01-09 22:42:00,43.0,22.0,-100.00,SW,236,3.0,6.0,43,-99.99,,,-99.99,,2013-01-10 06:42:00,
2013-01-09 22:52:00,42.0,22.0,-100.00,WSW,237,3.0,6.0,44,-99.99,,,-99.99,,2013-01-10 06:52:00,
2013-01-09 23:02:00,42.0,23.0,-100.00,SW,233,3.0,6.0,46,-99.99,,,-99.99,,2013-01-10 07:02:00,
2013-01-09 23:11:00,42.0,23.0,-100.00,SW,233,3.0,6.0,46,-99.99,,,-99.99,,2013-01-10 07:11:00,
2013-01-09 23:22:00,41.0,23.0,-100.00,SW,229,3.0,5.0,48,-99.99,,,-99.99,,2013-01-10 07:22:00,
2013-01-09 23:32:00,41.0,23.0,-100.00,SW,229,3.0,5.0,48,-99.99,,,-99.99,,2013-01-10 07:32:00,
2013-01-09 23:42:00,41.0,23.0,-100.00,SW,223,2.0,5.0,48,-99.99,,,-99.99,,2013-01-10 07:42:00,
2013-01-09 23:52:00,41.0,23.0,-100.00,SW,223,2.0,5.0,48,-99.99,,,-99.99,,2013-01-10 07:52:00,